SCP
-0 -0 -0 -0 -0 0 0 0 0 0 0 0 0 0 0 0 0 0 0 0 0 0 0 0 0 0 0 0 0 0 0 0 0 0 0 0 0 0 0 0 0 0 0 0 0
-0 -0 0 0 0 0 0 0 0 0 0 0 0 0 0 0 0 0 0 0 0 0 0 0 0 0 0 0 0 0 0 0 0 0 0 0 0 0 0 0 0 0 0 0 0
0 0 0 0 0 0 0 0 0 0 0 0 0 0 0 0 0 0 0 0 0 0 0 0 0 0 0 0 0 0 0 0 0 0 0 0 0 0 0 0 0 0 0 0 0
-0 -0 0 0 0 0 0 0 0 0 0 0 0 0 0 -0 0 0 0 0 0 0 0 0 0 0 0 0 0 0 0 0 0 0 0 0 0 0 0 0 0 0 0 0 0
-0 -0 -0 -0 -0 -0 -0 0 0 0 0 -0 -0 -0 -0 -0 0 0 0 0 0 0 0 0 0 0 0 0 0 0 0 0 0 0 0 0 0 0 0 0 0 0 0 0 0
-0 -0 -0 -0 -0 -0 -0 0 0 0 -0 -0 -0 -0 -0 0 0 0 0 0 0 0 0 0 0 0 0 0 0 0 0 0 0 0 0 0 0 0 0 0 0 0 0 0 0
-0 -0 -0 -0 -0 -0 0 0 0 -0 -0 -0 -0 -0 -0 0 0 0 0 0 0 0 0 0 0 0 0 0 0 0 0 0 0 0 0 0 0 0 0 0 0 0 0 -0 0
-0 0 -0 0 0 -0 0 0 0 -0 -0 0 0 -0 0 0 -0 -0 0 0 0 0 0 0 0 0 0 0 0 0 0 0 0 0 0 0 0 0 0 0 0 0 0 0 0
0 0 0 0 0 -0 -0 -0 0 0 0 0 0 0 0 0 0 0 0 0 0 0 0 0 0 0 0 0 0 0 0 0 0 0 0 0 0 0 0 0 0 0 0 0 0
-0 -0 -0 0 0 0 0 -0 0 0 0 0 0 0 0 0 0 0 0 0 0 0 0 0 0 0 0 0 0 0 0 0 0 0 0 0 0 0 0 0 0 0 0 0 0
-0 -0 -0 -0 0 0 0 -0 -0 -0 -0 0 0 0 0 0 -0 -0 -0 -0 0 0 0 0 0 0 0 0 0 0 0 0 0 0 0 0 0 0 0 0 0 0 0 0 0
-0 -0 -0 -0 -0 0 -0 0 0 0 0 0 0 0 0 0 0 0 0 -0 -0 -0 -0 0 0 0 0 0 0 0 0 0 0 0 0 0 0 0 0 0 0 0 0 0 0
-0 0 0 0 0 0 0 0 0 0 0 0 0 0 0 0 -0 -0 0 -0 -0 -0 0 0 -0 0 0 0 0 0 0 0 0 0 0 0 0 0 0 0 0 0 0 0 0
0 0 0 0 0 0 0 0 0 0 0 0 0 0 0 0 -0 0 0 -0 -0 0 0 -0 0 0 0 0 0 0 0 0 0 0 0 0 0 0 0 0 0 0 0 0 0
0 0 -0 -0 0 0 0 0 0 0 -0 0 0 0 0 0 0 0 0 0 -0 0 0 0 0 0 0 -0 0 0 0 0 0 0 0 0 0 0 0 0 0 0 0 0 0
0 -0 0 0 0 0 0 0 0 -0 0 0 0 0 0 0 0 0 0 0 0 0 0 0 0 0 0 0 0 0 0 0 0 0 0 0 0 0 0 0 0 0 0 0 -0
0 0 0 0 0 0 0 0 0 0 0 0 0 0 0 0 0 0 0 0 0 0 0 0 -0 0 0 0 0 0 0 0 0 0 0 0 0 0 0 0 0 0 0 0 0
0 0 0 0 0 0 0 0 0 0 0 0 0 0 0 0 0 0 0 0 0 0 0 0 0 0 0 -0 0 -0 0 0 0 0 0 0 0 0 0 0 0 0 0 0 0
0 0 0 0 0 0 0 0 0 0 0 0 0 0 0 0 0 0 0 0 0 0 0 0 0 0 0 -0 -0 0 0 0 0 0 0 0 0 0 0 0 -0 0 0 0 0
0 0 0 0 0 0 0 0 0 0 0 0 0 0 0 0 0 0 0 0 0 0 0 0 0 0 0 0 0 -0 0 0 0 0 0 0 0 0 0 0 0 0 0 0 0
0 0 0 0 0 0 0 0 0 0 0 0 0 0 0 0 0 0 0 0 0 0 0 -0 0 -0 0 0 0 -0 0 0 0 0 0 0 0 0 0 0 0 0 0 0 0
0 0 0 0 0 0 0 0 0 0 0 0 0 0 0 0 0 0 0 0 0 0 -0 -0 0 0 -0 0 -0 -0 -0 0 0 0 0 0 0 0 0 0 0 0 0 0 0
-0 0 0 0 0 0 0 0 0 0 0 0 0 0 0 0 0 0 0 0 -0 -0 0 0 0 -0 -0 0 0 0 0 0 0 0 0 0 0 0 0 0 0 0 0 0 0
0 -0 0 0 0 0 0 0 0 0 0 0 0 0 0 0 0 0 0 0 0 -0 -0 -0 0 0 0 -0 0 0 0 0 0 0 0 0 0 -0 0 0 0 0 0 0 0
0 0 0 0 0 0 0 0 0 0 0 0 0 0 0 0 0 0 0 0 0 -0 -0 0 -0 -0 -0 -0 0 -0 0 0 0 0 0 0 0 0 0 0 0 0 0 0 0
0 0 0 0 0 0 0 0 0 0 0 0 0 0 0 0 0 -0 -0 -0 0 0 0 0 -0 -0 0 0 -0 -0 -0 0 0 0 -0 -0 0 0 0 0 0 0 0 0 0
0 0 0 0 0 0 0 0 0 0 0 0 0 -0 -0 -0 0 -0 -0 -0 0 0 0 0 0 0 -0 -0 -0 -0 -0 0 -0 0 -0 0 -0 0 0 0 -0 0 0 0 0
Wind_Speed_500mb
30 28 27 27 27 26 25 25 26 26 25 25 24 23 23 25 22 19 10 18 16 23 29 27 16 19 26 34 37 32 25 32 42 32 31 23 28 38 17 24 13 5 6 11 5
29 28 29 30 30 27 25 24 25 27 28 28 26 24 23 24 23 7 16 10 5 9 17 28 33 31 36 38 32 34 31 48 34 24 26 38 39 26 16 29 27 19 15 10 16
30 30 30 33 31 29 26 25 25 25 28 29 28 26 24 21 2 6 7 5 9 12 9 15 34 37 50 41 54 51 49 38 44 33 37 44 43 38 31 34 33 27 19 15 10
28 28 29 30 29 25 23 22 23 27 32 30 28 29 27 13 5 9 10 26 30 25 11 10 23 44 41 51 52 50 56 61 53 42 36 40 46 51 51 54 52 22 28 34 28
30 30 29 29 27 26 23 21 24 25 27 26 27 35 25 3 8 10 21 25 19 13 12 16 24 38 50 39 57 56 56 56 51 51 49 37 56 50 56 58 54 50 44 43 46
32 32 30 30 25 24 19 18 23 27 28 28 27 27 10 5 12 17 15 15 15 12 11 17 20 26 40 52 52 53 59 70 68 49 45 51 60 58 56 58 56 53 56 53 42
33 32 30 29 26 25 21 21 24 30 32 25 18 15 3 13 21 19 21 17 16 10 14 16 25 30 15 35 57 60 54 51 46 63 60 45 48 73 65 69 53 49 51 51 47
40 38 35 32 30 28 26 27 27 29 23 12 14 11 2 20 25 24 21 20 19 16 15 16 19 37 44 41 42 36 46 49 65 48 57 52 64 74 65 68 71 68 64 61 52
41 40 36 32 27 25 26 29 26 19 8 9 7 4 8 17 27 23 25 23 27 21 18 14 15 36 37 38 36 43 48 64 63 59 49 37 65 69 75 55 50 55 53 54 51
44 42 38 33 25 21 28 30 20 8 8 6 8 5 2 21 29 30 17 19 23 23 24 19 20 26 30 34 46 51 59 59 60 47 55 60 67 58 50 27 51 61 61 59 51
49 48 40 31 22 17 29 24 12 4 14 14 9 8 12 26 25 17 18 19 15 19 25 35 25 34 33 41 58 55 59 51 58 46 51 56 68 65 64 71 58 60 54 54 56
53 49 41 28 16 9 22 10 9 11 17 19 17 16 12 15 19 15 12 11 18 23 24 23 38 37 38 38 48 55 60 64 44 32 43 56 65 56 55 55 69 70 67 66 62
53 49 39 19 11 2 6 7 7 16 13 7 5 8 8 13 26 23 14 22 26 29 23 32 39 35 29 34 40 49 53 53 58 32 39 41 57 58 56 62 64 60 62 63 60
52 43 32 7 8 3 1 10 17 4 8 9 8 5 13 24 17 24 9 22 19 23 26 30 33 34 38 42 41 48 48 53 52 49 38 43 43 49 52 54 56 66 61 59 54
44 30 22 16 7 6 6 18 16 2 7 4 5 6 23 12 19 2 17 16 26 33 26 36 33 31 36 39 42 46 42 51 40 46 49 58 33 33 33 40 39 37 52 56 56
37 12 12 12 12 10 18 17 6 11 2 4 4 14 24 21 17 14 22 10 27 24 32 42 39 38 34 35 37 34 33 43 36 41 44 65 49 47 43 50 44 41 41 41 39
31 3 7 10 5 17 19 3 10 8 4 4 14 22 29 18 15 15 26 21 14 17 25 36 19 25 35 35 36 31 34 26 29 25 33 43 46 41 14 11 24 25 14 12 14
25 7 2 9 14 21 8 10 8 8 10 14 18 31 11 16 14 26 23 23 7 15 23 17 13 14 13 37 36 37 36 27 39 33 41 44 29 33 33 48 32 23 24 6 13
16 9 1 10 18 19 14 8 10 12 10 18 28 11 2 8 13 15 27 16 9 15 15 25 13 14 25 23 27 43 36 42 46 47 37 36 47 44 15 17 17 6 11 7 18
7 7 3 13 20 10 10 8 7 7 15 14 12 5 17 24 22 20 20 2 14 10 21 16 23 9 4 22 39 41 23 26 28 29 35 37 42 23 51 54 33 10 2 15 24
8 6 7 14 12 6 4 8 10 7 14 12 17 23 24 25 20 21 14 24 7 20 27 29 12 25 17 11 16 26 36 19 33 25 32 27 33 37 23 28 24 10 11 25 31
10 3 10 16 5 4 7 11 7 8 10 15 14 14 17 18 27 26 24 15 22 25 32 29 13 26 33 8 19 26 17 11 22 28 30 29 5 4 28 30 16 6 21 29 33
13 5 10 10 5 8 13 10 8 13 13 9 10 12 17 22 13 14 20 20 36 27 13 19 13 22 20 11 18 15 26 25 25 32 28 30 18 19 21 16 10 19 31 34 37
11 4 4 10 6 8 12 2 7 11 20 10 21 24 21 24 23 19 34 18 32 39 32 28 26 28 27 39 21 21 20 24 24 21 34 33 41 27 34 17 25 34 39 45 43
14 6 8 6 2 15 13 7 9 9 8 25 11 18 21 13 33 37 25 37 38 44 30 10 28 36 40 37 35 34 36 36 39 38 37 41 36 37 37 36 35 45 55 55 42
13 13 16 19 12 15 1 4 10 7 14 18 21 24 28 32 34 47 42 36 12 11 20 17 19 25 34 35 37 41 43 44 47 43 45 44 48 45 49 57 53 52 49 44 40
13 13 5 11 7 8 3 8 15 26 19 20 24 34 34 35 42 56 58 55 32 11 8 11 12 15 29 19 24 28 34 35 39 41 36 40 40 39 42 38 39 45 45 44 42
Wind_Direction_500mb
13 10 5 359 353 346 341 338 337 335 332 331 330 331 325 317 315 313 284 244 254 247 232 228 241 220 207 218 223 230 241 242 243 231 252 256 255 247 247 248 220 227 132 19 169
13 10 4 359 353 345 340 339 339 334 333 333 341 344 331 327 326 308 220 161 89 328 245 233 228 217 212 218 216 217 229 242 250 254 248 245 252 254 248 231 224 216 214 49 61
9 6 3 359 356 349 344 345 344 346 342 341 350 354 344 339 340 148 146 245 282 336 304 246 226 225 225 223 220 223 241 239 242 245 252 261 258 247 243 247 233 223 227 230 298
6 4 2 3 1 358 351 350 351 352 348 349 352 352 355 33 347 173 299 307 305 304 298 275 229 222 231 230 226 238 246 246 254 243 247 256 262 260 254 254 249 236 252 277 279
358 357 357 1 2 1 357 353 346 346 358 355 351 352 2 338 49 304 317 325 334 335 263 258 244 229 235 237 235 237 243 245 246 255 251 260 255 256 255 251 250 256 260 265 277
353 351 350 354 356 358 359 347 333 333 343 336 336 350 8 90 352 351 356 326 329 329 296 250 246 251 273 255 244 244 245 249 251 239 246 250 257 256 249 251 256 254 257 260 257
354 351 348 347 349 349 348 333 322 320 325 327 332 4 64 35 21 359 339 326 303 297 301 287 252 244 254 255 251 254 259 261 243 242 239 241 266 249 245 249 252 250 251 255 258
354 348 346 344 343 346 343 334 326 321 324 350 342 15 220 359 6 357 333 335 323 290 275 285 272 251 249 260 277 259 245 246 237 230 241 226 254 258 234 237 246 249 252 255 255
348 344 338 337 336 339 344 341 328 328 359 352 34 339 113 345 346 341 331 320 322 299 260 270 260 243 241 235 252 241 243 236 244 229 223 209 240 250 258 243 233 243 245 251 253
342 342 336 330 334 341 352 350 339 335 332 48 16 247 52 334 334 333 329 323 318 305 272 243 242 241 230 231 237 235 236 245 256 235 222 226 244 249 243 234 245 243 245 248 250
341 339 336 331 332 338 357 350 322 223 314 292 314 301 333 324 329 320 319 309 301 281 272 250 255 247 255 252 249 260 267 266 255 249 254 226 240 246 244 252 249 252 249 250 251
341 338 334 329 325 317 7 22 27 325 298 291 261 267 297 309 309 330 331 308 308 287 288 254 249 263 279 280 269 250 252 255 261 283 245 246 243 246 249 250 251 251 252 256 260
341 339 336 321 324 302 37 39 5 339 274 342 198 276 315 296 295 300 297 303 285 286 281 273 268 282 281 270 259 260 252 251 251 268 239 254 252 249 244 245 252 256 255 258 259
344 343 348 360 73 17 25 336 336 347 264 126 186 171 307 317 260 311 266 297 274 285 300 290 287 268 259 263 264 260 251 254 249 244 242 219 253 242 233 239 243 248 251 256 258
346 358 39 64 80 26 300 323 320 142 256 101 174 287 321 294 303 85 312 296 278 296 292 293 289 260 252 258 265 260 253 249 240 240 249 246 251 253 259 254 252 254 255 258 263
346 3 37 41 35 360 341 325 150 231 115 158 269 318 316 322 302 304 313 264 291 288 277 279 278 262 260 269 292 251 256 239 246 238 230 236 241 253 252 253 250 250 251 261 261
344 312 18 30 337 347 348 170 247 278 113 56 328 325 312 297 310 337 332 311 328 319 333 311 286 275 234 259 272 245 243 231 221 230 242 227 228 238 242 329 294 250 235 276 279
343 203 1 21 357 344 342 241 282 59 342 344 319 310 295 8 347 333 322 316 99 311 302 327 325 13 240 227 254 245 231 230 222 224 233 231 234 224 238 253 207 273 263 264 338
343 192 321 336 350 344 286 263 355 6 355 324 314 304 27 312 323 313 323 314 341 347 335 312 286 275 246 259 264 252 250 241 264 278 246 219 219 251 226 217 204 186 204 329 352
18 178 283 325 337 329 272 325 317 337 318 305 308 304 320 326 314 325 321 317 310 299 331 308 301 272 276 258 253 244 262 269 243 251 240 236 209 223 216 232 234 164 85 9 7
49 212 339 343 355 299 289 354 304 320 322 313 312 298 311 313 298 303 277 294 281 306 315 296 281 290 249 234 238 284 226 216 261 259 255 221 221 212 241 190 147 112 27 18 3
6 237 324 354 268 323 311 342 334 287 293 291 282 282 277 306 296 292 285 275 300 314 302 299 289 284 281 237 179 241 228 322 263 231 252 275 72 110 155 119 113 20 14 3 357
348 304 344 28 345 346 336 298 262 296 314 300 304 286 298 291 301 292 288 298 306 304 318 349 259 293 286 183 208 236 262 260 248 275 276 253 236 139 153 146 69 358 346 340 344
336 328 45 58 94 332 344 350 322 310 289 255 290 275 277 293 279 270 286 285 297 290 287 303 265 259 279 303 314 292 282 269 277 263 260 243 263 189 202 298 323 324 315 320 326
2 28 359 324 19 336 299 284 305 313 276 300 276 255 295 280 302 285 300 305 285 275 264 255 265 269 269 271 280 276 268 262 256 256 264 266 267 266 279 295 310 301 300 301 312
5 349 333 297 302 315 233 274 305 309 303 289 275 301 304 286 283 289 299 302 271 320 254 229 255 276 292 284 271 271 267 260 254 249 254 258 265 273 277 280 281 287 291 302 309
1 338 284 289 289 310 331 322 304 308 292 258 288 295 292 292 307 294 287 280 257 225 230 279 269 282 267 282 294 270 264 253 254 250 255 256 260 263 266 270 275 284 289 295 298
Wind_Speed_850mb
30 28 27 27 27 26 25 25 26 26 25 25 24 23 23 25 22 19 10 18 16 23 29 27 16 19 26 34 37 32 25 32 42 32 31 23 28 38 17 24 13 5 6 11 5
29 28 29 30 30 27 25 24 25 27 28 28 26 24 23 24 23 7 16 10 5 9 17 28 33 31 36 38 32 34 31 48 34 24 26 38 39 26 16 29 27 19 15 10 16
30 30 30 33 31 29 26 25 25 25 28 29 28 26 24 21 2 6 7 5 9 12 9 15 34 37 50 41 54 51 49 38 44 33 37 44 43 38 31 34 33 27 19 15 10
28 28 29 30 29 25 23 22 23 27 32 30 28 29 27 13 5 9 10 26 30 25 11 10 23 44 41 51 52 50 56 61 53 42 36 40 46 51 51 54 52 22 28 34 28
30 30 29 29 27 26 23 21 24 25 27 26 27 35 25 3 8 10 21 25 19 13 12 16 24 38 50 39 57 56 56 56 51 51 49 37 56 50 56 58 54 50 44 43 46
32 32 30 30 25 24 19 18 23 27 28 28 27 27 10 5 12 17 15 15 15 12 11 17 20 26 40 52 52 53 59 70 68 49 45 51 60 58 56 58 56 53 56 53 42
33 32 30 29 26 25 21 21 24 30 32 25 18 15 3 13 21 19 21 17 16 10 14 16 25 30 15 35 57 60 54 51 46 63 60 45 48 73 65 69 53 49 51 51 47
40 38 35 32 30 28 26 27 27 29 23 12 14 11 2 20 25 24 21 20 19 16 15 16 19 37 44 41 42 36 46 49 65 48 57 52 64 74 65 68 71 68 64 61 52
41 40 36 32 27 25 26 29 26 19 8 9 7 4 8 17 27 23 25 23 27 21 18 14 15 36 37 38 36 43 48 64 63 59 49 37 65 69 75 55 50 55 53 54 51
44 42 38 33 25 21 28 30 20 8 8 6 8 5 2 21 29 30 17 19 23 23 24 19 20 26 30 34 46 51 59 59 60 47 55 60 67 58 50 27 51 61 61 59 51
49 48 40 31 22 17 29 24 12 4 14 14 9 8 12 26 25 17 18 19 15 19 25 35 25 34 33 41 58 55 59 51 58 46 51 56 68 65 64 71 58 60 54 54 56
53 49 41 28 16 9 22 10 9 11 17 19 17 16 12 15 19 15 12 11 18 23 24 23 38 37 38 38 48 55 60 64 44 32 43 56 65 56 55 55 69 70 67 66 62
53 49 39 19 11 2 6 7 7 16 13 7 5 8 8 13 26 23 14 22 26 29 23 32 39 35 29 34 40 49 53 53 58 32 39 41 57 58 56 62 64 60 62 63 60
52 43 32 7 8 3 1 10 17 4 8 9 8 5 13 24 17 24 9 22 19 23 26 30 33 34 38 42 41 48 48 53 52 49 38 43 43 49 52 54 56 66 61 59 54
44 30 22 16 7 6 6 18 16 2 7 4 5 6 23 12 19 2 17 16 26 33 26 36 33 31 36 39 42 46 42 51 40 46 49 58 33 33 33 40 39 37 52 56 56
37 12 12 12 12 10 18 17 6 11 2 4 4 14 24 21 17 14 22 10 27 24 32 42 39 38 34 35 37 34 33 43 36 41 44 65 49 47 43 50 44 41 41 41 39
31 3 7 10 5 17 19 3 10 8 4 4 14 22 29 18 15 15 26 21 14 17 25 36 19 25 35 35 36 31 34 26 29 25 33 43 46 41 14 11 24 25 14 12 14
25 7 2 9 14 21 8 10 8 8 10 14 18 31 11 16 14 26 23 23 7 15 23 17 13 14 13 37 36 37 36 27 39 33 41 44 29 33 33 48 32 23 24 6 13
16 9 1 10 18 19 14 8 10 12 10 18 28 11 2 8 13 15 27 16 9 15 15 25 13 14 25 23 27 43 36 42 46 47 37 36 47 44 15 17 17 6 11 7 18
7 7 3 13 20 10 10 8 7 7 15 14 12 5 17 24 22 20 20 2 14 10 21 16 23 9 4 22 39 41 23 26 28 29 35 37 42 23 51 54 33 10 2 15 24
8 6 7 14 12 6 4 8 10 7 14 12 17 23 24 25 20 21 14 24 7 20 27 29 12 25 17 11 16 26 36 19 33 25 32 27 33 37 23 28 24 10 11 25 31
10 3 10 16 5 4 7 11 7 8 10 15 14 14 17 18 27 26 24 15 22 25 32 29 13 26 33 8 19 26 17 11 22 28 30 29 5 4 28 30 16 6 21 29 33
13 5 10 10 5 8 13 10 8 13 13 9 10 12 17 22 13 14 20 20 36 27 13 19 13 22 20 11 18 15 26 25 25 32 28 30 18 19 21 16 10 19 31 34 37
11 4 4 10 6 8 12 2 7 11 20 10 21 24 21 24 23 19 34 18 32 39 32 28 26 28 27 39 21 21 20 24 24 21 34 33 41 27 34 17 25 34 39 45 43
14 6 8 6 2 15 13 7 9 9 8 25 11 18 21 13 33 37 25 37 38 44 30 10 28 36 40 37 35 34 36 36 39 38 37 41 36 37 37 36 35 45 55 55 42
13 13 16 19 12 15 1 4 10 7 14 18 21 24 28 32 34 47 42 36 12 11 20 17 19 25 34 35 37 41 43 44 47 43 45 44 48 45 49 57 53 52 49 44 40
13 13 5 11 7 8 3 8 15 26 19 20 24 34 34 35 42 56 58 55 32 11 8 11 12 15 29 19 24 28 34 35 39 41 36 40 40 39 42 38 39 45 45 44 42
Wind_Direction_850mb
13 10 5 359 353 346 341 338 337 335 332 331 330 331 325 317 315 313 284 244 254 247 232 228 241 220 207 218 223 230 241 242 243 231 252 256 255 247 247 248 220 227 132 19 169
13 10 4 359 353 345 340 339 339 334 333 333 341 344 331 327 326 308 220 161 89 328 245 233 228 217 212 218 216 217 229 242 250 254 248 245 252 254 248 231 224 216 214 49 61
9 6 3 359 356 349 344 345 344 346 342 341 350 354 344 339 340 148 146 245 282 336 304 246 226 225 225 223 220 223 241 239 242 245 252 261 258 247 243 247 233 223 227 230 298
6 4 2 3 1 358 351 350 351 352 348 349 352 352 355 33 347 173 299 307 305 304 298 275 229 222 231 230 226 238 246 246 254 243 247 256 262 260 254 254 249 236 252 277 279
358 357 357 1 2 1 357 353 346 346 358 355 351 352 2 338 49 304 317 325 334 335 263 258 244 229 235 237 235 237 243 245 246 255 251 260 255 256 255 251 250 256 260 265 277
353 351 350 354 356 358 359 347 333 333 343 336 336 350 8 90 352 351 356 326 329 329 296 250 246 251 273 255 244 244 245 249 251 239 246 250 257 256 249 251 256 254 257 260 257
354 351 348 347 349 349 348 333 322 320 325 327 332 4 64 35 21 359 339 326 303 297 301 287 252 244 254 255 251 254 259 261 243 242 239 241 266 249 245 249 252 250 251 255 258
354 348 346 344 343 346 343 334 326 321 324 350 342 15 220 359 6 357 333 335 323 290 275 285 272 251 249 260 277 259 245 246 237 230 241 226 254 258 234 237 246 249 252 255 255
348 344 338 337 336 339 344 341 328 328 359 352 34 339 113 345 346 341 331 320 322 299 260 270 260 243 241 235 252 241 243 236 244 229 223 209 240 250 258 243 233 243 245 251 253
342 342 336 330 334 341 352 350 339 335 332 48 16 247 52 334 334 333 329 323 318 305 272 243 242 241 230 231 237 235 236 245 256 235 222 226 244 249 243 234 245 243 245 248 250
341 339 336 331 332 338 357 350 322 223 314 292 314 301 333 324 329 320 319 309 301 281 272 250 255 247 255 252 249 260 267 266 255 249 254 226 240 246 244 252 249 252 249 250 251
341 338 334 329 325 317 7 22 27 325 298 291 261 267 297 309 309 330 331 308 308 287 288 254 249 263 279 280 269 250 252 255 261 283 245 246 243 246 249 250 251 251 252 256 260
341 339 336 321 324 302 37 39 5 339 274 342 198 276 315 296 295 300 297 303 285 286 281 273 268 282 281 270 259 260 252 251 251 268 239 254 252 249 244 245 252 256 255 258 259
344 343 348 360 73 17 25 336 336 347 264 126 186 171 307 317 260 311 266 297 274 285 300 290 287 268 259 263 264 260 251 254 249 244 242 219 253 242 233 239 243 248 251 256 258
346 358 39 64 80 26 300 323 320 142 256 101 174 287 321 294 303 85 312 296 278 296 292 293 289 260 252 258 265 260 253 249 240 240 249 246 251 253 259 254 252 254 255 258 263
346 3 37 41 35 360 341 325 150 231 115 158 269 318 316 322 302 304 313 264 291 288 277 279 278 262 260 269 292 251 256 239 246 238 230 236 241 253 252 253 250 250 251 261 261
344 312 18 30 337 347 348 170 247 278 113 56 328 325 312 297 310 337 332 311 328 319 333 311 286 275 234 259 272 245 243 231 221 230 242 227 228 238 242 329 294 250 235 276 279
343 203 1 21 357 344 342 241 282 59 342 344 319 310 295 8 347 333 322 316 99 311 302 327 325 13 240 227 254 245 231 230 222 224 233 231 234 224 238 253 207 273 263 264 338
343 192 321 336 350 344 286 263 355 6 355 324 314 304 27 312 323 313 323 314 341 347 335 312 286 275 246 259 264 252 250 241 264 278 246 219 219 251 226 217 204 186 204 329 352
18 178 283 325 337 329 272 325 317 337 318 305 308 304 320 326 314 325 321 317 310 299 331 308 301 272 276 258 253 244 262 269 243 251 240 236 209 223 216 232 234 164 85 9 7
49 212 339 343 355 299 289 354 304 320 322 313 312 298 311 313 298 303 277 294 281 306 315 296 281 290 249 234 238 284 226 216 261 259 255 221 221 212 241 190 147 112 27 18 3
6 237 324 354 268 323 311 342 334 287 293 291 282 282 277 306 296 292 285 275 300 314 302 299 289 284 281 237 179 241 228 322 263 231 252 275 72 110 155 119 113 20 14 3 357
348 304 344 28 345 346 336 298 262 296 314 300 304 286 298 291 301 292 288 298 306 304 318 349 259 293 286 183 208 236 262 260 248 275 276 253 236 139 153 146 69 358 346 340 344
336 328 45 58 94 332 344 350 322 310 289 255 290 275 277 293 279 270 286 285 297 290 287 303 265 259 279 303 314 292 282 269 277 263 260 243 263 189 202 298 323 324 315 320 326
2 28 359 324 19 336 299 284 305 313 276 300 276 255 295 280 302 285 300 305 285 275 264 255 265 269 269 271 280 276 268 262 256 256 264 266 267 266 279 295 310 301 300 301 312
5 349 333 297 302 315 233 274 305 309 303 289 275 301 304 286 283 289 299 302 271 320 254 229 255 276 292 284 271 271 267 260 254 249 254 258 265 273 277 280 281 287 291 302 309
1 338 284 289 289 310 331 322 304 308 292 258 288 295 292 292 307 294 287 280 257 225 230 279 269 282 267 282 294 270 264 253 254 250 255 256 260 263 266 270 275 284 289 295 298